CZ-6A DEB, 56262

Orbit data source: Space-Track

CZ-6A DEB, 56262 is space debris in SSO originally from a launch on Fri, 11 Nov 2022 UTC launched from the Taiyaun Space Center, China (TSC). Debris objects in space refer to the collection of defunct objects orbiting the Earth. Examples of debris include non-operational satellites, rocket bodies, and fragments generated from explosions, collisions, or faulty payload assembly.

Loading next visibility...
Identifier
56262, 2022-151ACE
Orbit
SSO
Country
Flag of CNCN / PRC
Related business
Manufacturer
SAST
Mission
Spacecraft
Bus & Motor
Unknown
Mass
Unknown
Launch date (UTC)
2022-11-11 (3 years ago)
Launch vehicle
Unknown
Launch site
Taiyaun Space Center, China (TSC)
Object type
Payload
Rocket body
Debris
Shape & HBR
Unknown shape, 0.1 m
Radar Cross Section
Small (<0.1 m²)

Expand to show TLE details & history
Last TLE update: 9 hours ago

TLE from 9 hours ago
0 CZ-6A DEB
1 56262U 22151ACE 25349.93869461  .00001994  00000-0  10223-2 0  9994
2 56262  98.8369 353.6885 0046287 102.5176 258.1182 14.15998025147264
Epoch: 2025-12-15T22:31Z
TLE epoch observation values (Epoch: 2025-12-15T22:31:43.214Z)
Latitude
0.00005°
Longitude
-69.07164°
Altitude
848.851 km
Speed
7.425 km/s
True Right ascension
23h 34m 45s
True Declination
0° 00' 00"
Sunlit
Object was in daylight at epoch
Visualization orbit readout
Latitude
Unknown
Longitude
Unknown
Altitude
Unknown
Speed
Unknown
Apparent Right ascension
Unknown
Apparent Declination
Unknown
Sunlit
N/A
Visualization observer readout
Local Sidereal Time
06:21:10
Azimuth
Unknown
Elevation
Unknown
Doppler factor
Unknown
Orbital elements
Apogee altitude
869.481 km
Perigee altitude
802.697 km
Semi-major axis
7,214.226 km
Eccentricity
0.00463
Inclination
98.8369°
RAAN
353.6885°
Arg. of periapsis
102.5176°
True anomaly
257.59978°
Mean anomaly
258.1182°
Eccentric anomaly
257.85893°
Mean motion
3.54208 °/min
Orbital period
101.64 mins
BSTAR
0.0010223
Loading maneuver chart data...
Computing Atmospheric mass density...
Loading historical data...
Loading historical data...
Loading historical data...
Loading historical data...
Loading historical data...
Loading historical data...
Loading historical data...

Documentation

Showing up to 5 results
|